Weather History for Ruston, LA

Change the Weather History Date:

Saturday, May 3, 2014

  Actual Average Record
Temperature  
Mean Temperature 66 °F -  
Max Temperature 83 °F 77 °F 91 °F (1943)
Min Temperature 49 °F 55 °F 41 °F (2013)
Cooling Degree Days 1    
Growing Degree Days 16 (Base 50)    
Moisture  
Dew Point 48 °F    
Average Humidity 59    
Maximum Humidity 95    
Minimum Humidity 22    
Precipitation  
Precipitation 0.00 in - - ()
Sea Level Pressure  
Sea Level Pressure 30.05 in    
Wind  
Wind Speed 2 mph (SW)    
Max Wind Speed 9 mph    
Max Gust Speed -    
Visibility 10 miles    
Events      
Averages and records for this station are not official NWS values.
T = Trace of Precipitation, MM = Missing Value Source: NWS Daily Summary

Daily Weather History Graph

Daily Weather History Graph

Search for Another Location

Airport:

Trip Planner

Search our weather history database for the weather conditions in past years. The results will help you decide how hot, cold, wet, or windy it might be!

Date:

Astronomy

May. 03, 2014 Rise Set
Actual Time 6:21 AM CDT 7:53 PM CDT
Civil Twilight 5:55 AM CDT 8:19 PM CDT
Nautical Twilight 5:23 AM CDT 8:51 PM CDT
Astronomical Twilight 4:51 AM CDT 9:24 PM CDT
Moon 9:54 AM CDT (5/3) 11:57 PM CDT (5/3)
Length of Visible Light 14h 24m
Length of Day
13h 31m
Waxing Crescent, 20% of the Moon is Illuminated
May 3
Waxing Crescent
May 6
First Quarter
May 14
Full
May 21
Last Quarter
May 28
New

Hourly Weather History & Observations

Time (CDT) Temp. Dew Point Humidity Pressure Visibility Wind Dir Wind Speed Gust Speed Precip Events Conditions
12:15 AM 52.5 °F 49.6 °F 90% 30.02 in 10.0 mi Calm Calm - N/A   Clear
12:35 AM 52.3 °F 49.3 °F 89% 30.02 in 10.0 mi Calm Calm - N/A   Clear
12:55 AM 51.4 °F 49.1 °F 92% 30.02 in 10.0 mi SW 3.5 mph - N/A   Clear
1:15 AM 50.7 °F 49.1 °F 94% 30.02 in 10.0 mi Calm Calm - N/A   Clear
1:35 AM 50.4 °F 49.1 °F 95% 30.02 in 10.0 mi Calm Calm - N/A   Clear
1:55 AM 49.6 °F 48.4 °F 95% 30.02 in 10.0 mi SW 3.5 mph - N/A   Clear
2:15 AM 52.2 °F 48.2 °F 86% 30.02 in 10.0 mi SW 4.6 mph - N/A   Clear
2:35 AM 51.4 °F 48.2 °F 89% 30.01 in 10.0 mi SW 4.6 mph - N/A   Clear
2:55 AM 54.1 °F 47.3 °F 78% 30.01 in 10.0 mi SW 5.8 mph - N/A   Clear
3:15 AM 54.3 °F 47.5 °F 78% 30.02 in 10.0 mi SW 5.8 mph - N/A   Clear
3:35 AM 54.9 °F 47.7 °F 77% 30.02 in 10.0 mi SW 5.8 mph - N/A   Clear
3:55 AM 54.7 °F 47.3 °F 76% 30.02 in 10.0 mi SW 5.8 mph - N/A   Clear
4:15 AM 55.4 °F 47.1 °F 74% 30.02 in 10.0 mi SW 4.6 mph - N/A   Clear
4:35 AM 55.0 °F 47.3 °F 75% 30.03 in 10.0 mi SW 3.5 mph - N/A   Clear
4:55 AM 54.0 °F 47.7 °F 79% 30.03 in 10.0 mi SW 4.6 mph - N/A   Clear
5:15 AM 53.2 °F 47.5 °F 81% 30.03 in 10.0 mi SW 3.5 mph - N/A   Clear
5:35 AM 52.9 °F 47.7 °F 82% 30.03 in 10.0 mi SW 3.5 mph - N/A   Clear
5:55 AM 53.1 °F 47.5 °F 81% 30.04 in 10.0 mi SW 3.5 mph - N/A   Clear
6:15 AM 52.5 °F 47.5 °F 83% 30.04 in 10.0 mi SW 3.5 mph - N/A   Clear
6:35 AM 52.2 °F 47.5 °F 84% 30.04 in 10.0 mi Calm Calm - N/A   Clear
6:55 AM 52.2 °F 47.3 °F 83% 30.05 in 10.0 mi Calm Calm - N/A   Clear
7:15 AM 50.9 °F 47.8 °F 89% 30.06 in 10.0 mi WSW 3.5 mph - N/A   Clear
7:35 AM 54.3 °F 48.4 °F 80% 30.06 in 10.0 mi Calm Calm - N/A   Clear
7:55 AM 56.7 °F 50.4 °F 79% 30.06 in 10.0 mi Calm Calm - N/A   Clear
8:15 AM 59.5 °F 49.8 °F 70% 30.06 in 10.0 mi Calm Calm - N/A   Clear
8:35 AM 61.7 °F 50.2 °F 66% 30.06 in 10.0 mi Calm Calm - N/A   Clear
8:55 AM 63.9 °F 50.4 °F 61% 30.07 in 10.0 mi West 4.6 mph - N/A   Clear
9:15 AM 66.2 °F 51.1 °F 58% 30.08 in 10.0 mi West 3.5 mph - N/A   Clear
9:35 AM 68.4 °F 51.4 °F 55% 30.08 in 10.0 mi SSW 3.5 mph - N/A   Clear
9:55 AM 70.0 °F 50.4 °F 50% 30.08 in 10.0 mi Calm Calm - N/A   Clear
10:15 AM 72.1 °F 50.5 °F 46% 30.08 in 10.0 mi Calm Calm - N/A   Clear
10:35 AM 73.9 °F 47.3 °F 39% 30.08 in 10.0 mi Calm Calm - N/A   Clear
11:15 AM 75.7 °F 45.1 °F 34% 30.09 in 10.0 mi Calm Calm - N/A   Clear
11:35 AM 77.2 °F 47.5 °F 35% 30.09 in 10.0 mi SW 4.6 mph - N/A   Clear
11:55 AM 77.9 °F 43.5 °F 29% 30.09 in 10.0 mi SSW 5.8 mph - N/A   Clear
12:15 PM 78.1 °F 43.7 °F 29% 30.08 in 10.0 mi West 3.5 mph - N/A   Clear
12:35 PM 79.2 °F 42.8 °F 27% 30.08 in 10.0 mi WSW 6.9 mph - N/A   Clear
12:55 PM 79.7 °F 42.8 °F 27% 30.07 in 10.0 mi South 6.9 mph - N/A   Clear
1:15 PM 80.2 °F 40.6 °F 24% 30.07 in 10.0 mi SW 8.1 mph - N/A   Clear
1:35 PM 80.4 °F 40.5 °F 24% 30.06 in 10.0 mi SSW 9.2 mph - N/A   Clear
1:55 PM 81.1 °F 42.3 °F 25% 30.06 in 10.0 mi West 5.8 mph - N/A   Clear
2:15 PM 81.0 °F 41.0 °F 24% 30.06 in 10.0 mi NNW 3.5 mph - N/A   Clear
2:35 PM 81.5 °F 40.5 °F 23% 30.06 in 10.0 mi NW 3.5 mph - N/A   Clear
2:55 PM 82.4 °F 42.4 °F 24% 30.05 in 10.0 mi WSW 9.2 mph - N/A   Clear
3:15 PM 82.6 °F 41.4 °F 23% 30.04 in 10.0 mi WNW 6.9 mph - N/A   Clear
3:35 PM 83.1 °F 42.4 °F 24% 30.04 in 10.0 mi West 4.6 mph - N/A   Clear
3:55 PM 82.6 °F 40.1 °F 22% 30.04 in 10.0 mi West 4.6 mph - N/A   Clear
4:15 PM 83.7 °F 42.6 °F 23% 30.04 in 10.0 mi SSW 3.5 mph - N/A   Clear
4:35 PM 83.5 °F 40.3 °F 22% 30.03 in 10.0 mi SSW 6.9 mph - N/A   Clear
4:55 PM 83.3 °F 42.4 °F 24% 30.04 in 10.0 mi SW 4.6 mph - N/A   Clear
5:15 PM 83.3 °F 40.6 °F 22% 30.04 in 10.0 mi Calm Calm - N/A   Clear
5:35 PM 83.1 °F 41.5 °F 23% 30.03 in 10.0 mi WSW 3.5 mph - N/A   Clear
5:55 PM 83.3 °F 42.6 °F 24% 30.03 in 10.0 mi Calm Calm - N/A   Clear
6:15 PM 82.8 °F 43.3 °F 25% 30.03 in 10.0 mi Calm Calm - N/A   Clear
6:35 PM 81.7 °F 45.5 °F 28% 30.03 in 10.0 mi Calm Calm - N/A   Clear
6:55 PM 79.2 °F 49.3 °F 35% 30.04 in 10.0 mi Calm Calm - N/A   Clear
7:15 PM 74.8 °F 57.2 °F 54% 30.04 in 10.0 mi Calm Calm - N/A   Clear
7:35 PM 71.8 °F 55.4 °F 56% 30.05 in 10.0 mi Calm Calm - N/A   Clear
7:55 PM 69.3 °F 54.9 °F 60% 30.06 in 10.0 mi South 3.5 mph - N/A   Clear
8:15 PM 66.4 °F 53.6 °F 63% 30.06 in 10.0 mi South 3.5 mph - N/A   Clear
8:35 PM 64.2 °F 54.1 °F 70% 30.06 in 10.0 mi Calm Calm - N/A   Clear
8:55 PM 63.5 °F 53.8 °F 71% 30.07 in 10.0 mi Calm Calm - N/A   Clear
9:15 PM 63.1 °F 53.8 °F 71% 30.08 in 10.0 mi Calm Calm - N/A   Clear
9:35 PM 60.6 °F 53.6 °F 78% 30.08 in 10.0 mi South 3.5 mph - N/A   Clear
9:55 PM 59.9 °F 53.8 °F 80% 30.09 in 10.0 mi Calm Calm - N/A   Clear
10:15 PM 59.2 °F 54.0 °F 83% 30.09 in 10.0 mi Calm Calm - N/A   Clear
10:35 PM 58.5 °F 54.0 °F 85% 30.09 in 10.0 mi Calm Calm - N/A   Clear
10:55 PM 58.3 °F 53.6 °F 84% 30.09 in 10.0 mi Calm Calm - N/A   Clear
11:15 PM 56.5 °F 53.6 °F 90% 30.09 in 10.0 mi Calm Calm - N/A   Clear
11:35 PM 57.0 °F 53.6 °F 88% 30.10 in 10.0 mi Calm Calm - N/A   Clear
11:55 PM 56.5 °F 53.6 °F 90% 30.10 in 10.0 mi Calm Calm - N/A   Clear